GW5992 Weather Reports


time (UTC)temp
C
wind
direction
speed
KPH
gust
KPH
rain 1hr
cm
rain 24hr
cm
rain mn
cm
humidity
%
barometer
mb
20260507223605 11 111 0.0 1.6 0.00 0.00 0.00 79 1016.7
20260507222916 11 111 0.0 1.6 0.00 0.00 0.00 79 1016.7
20260507222018 11 111 0.0 8.0 0.00 0.00 0.00 78 1016.8
20260507221117 11 144 1.6 8.0 0.00 0.00 0.00 77 1016.8
20260507220219 11 134 0.0 8.0 0.00 0.00 0.00 76 1016.9
20260507215406 11 144 1.6 8.0 0.00 0.00 0.00 76 1016.8
20260507214503 11 139 0.0 4.8 0.00 0.00 0.00 75 1016.8
20260507213603 11 138 0.0 4.8 0.00 0.00 0.00 74 1016.9
20260507212705 11 163 0.0 4.8 0.00 0.00 0.00 74 1016.8
20260507211805 11 0 0.0 0.0 0.00 0.00 0.00 73 1016.8
20260507211117 11 0 0.0 0.0 0.00 0.00 0.00 73 1016.8
20260507210218 12 216 0.0 1.6 0.00 0.00 0.00 72 1016.6
20260507205404 12 216 0.0 1.6 0.00 0.00 0.00 72 1016.6
20260507204719 12 216 0.0 1.6 0.00 0.00 0.00 71 1016.6
20260507203605 12 218 0.0 4.8 0.00 0.00 0.00 71 1016.5
20260507202705 12 201 0.0 3.2 0.00 0.00 0.00 71 1016.4
20260507201805 12 201 0.0 1.6 0.00 0.00 0.00 71 1016.3
20260507200905 12 151 0.0 3.2 0.00 0.00 0.00 70 1016.2
20260507200003 12 140 0.0 4.8 0.00 0.00 0.00 70 1016.0
20260507195405 12 138 1.6 6.4 0.00 0.00 0.00 69 1015.9
20260507194503 12 137 1.6 4.8 0.00 0.00 0.00 70 1015.8
20260507193604 12 142 1.6 8.0 0.00 0.00 0.00 69 1015.7
20260507192705 12 131 3.2 11.3 0.00 0.00 0.00 69 1015.6
20260507191803 13 140 1.6 8.0 0.00 0.00 0.00 69 1015.6
20260507190905 13 134 3.2 12.9 0.00 0.00 0.00 69 1015.5
20260507190005 13 137 4.8 17.7 0.00 0.00 0.00 67 1015.4
20260507185405 13 128 6.4 17.7 0.00 0.00 0.00 66 1015.4
20260507184719 13 132 3.2 12.9 0.00 0.00 0.00 65 1015.4
20260507183604 13 157 1.6 8.0 0.00 0.00 0.00 62 1015.3
20260507182704 13 156 3.2 6.4 0.00 0.00 0.00 61 1015.3
20260507181803 13 117 0.0 6.4 0.00 0.00 0.00 62 1015.2
20260507180905 13 133 1.6 6.4 0.00 0.00 0.00 61 1015.2
20260507180005 13 157 1.6 9.7 0.00 0.00 0.00 62 1015.1
20260507175408 13 166 1.6 9.7 0.00 0.00 0.00 62 1015.1
20260507174504 13 145 1.6 9.7 0.00 0.00 0.00 62 1015.0
20260507173603 13 141 1.6 6.4 0.00 0.00 0.00 62 1015.0
20260507172705 14 144 1.6 6.4 0.00 0.00 0.00 61 1015.0
20260507171803 14 150 1.6 11.3 0.00 0.00 0.00 61 1014.9
20260507170903 14 144 3.2 11.3 0.00 0.00 0.00 58 1015.0
20260507170219 15 126 4.8 12.9 0.00 0.00 0.00 53 1015.0
20260507165405 15 118 3.2 12.9 0.00 0.00 0.00 54 1014.9
20260507164504 15 125 4.8 12.9 0.00 0.00 0.00 54 1015.0
20260507163603 15 126 4.8 14.5 0.00 0.00 0.00 53 1014.9
20260507162705 15 133 3.2 11.3 0.00 0.00 0.00 51 1015.0
20260507162018 15 128 3.2 11.3 0.00 0.00 0.00 52 1015.0
20260507160905 15 139 6.4 14.5 0.00 0.00 0.00 52 1014.9
20260507160003 15 88 3.2 11.3 0.00 0.00 0.00 51 1015.0
20260507155404 15 118 3.2 12.9 0.00 0.00 0.00 50 1015.0
20260507154505 15 117 1.6 8.0 0.00 0.00 0.00 49 1015.0
20260507153603 15 115 3.2 12.9 0.00 0.00 0.00 50 1015.1
20260507152918 16 109 4.8 14.5 0.00 0.00 0.00 48 1015.0
20260507151803 16 352 0.0 4.8 0.00 0.00 0.00 47 1015.0
20260507150908 16 351 0.0 1.6 0.00 0.00 0.00 43 1015.1
20260507150003 16 3 0.0 3.2 0.00 0.00 0.00 45 1015.1
20260507145405 16 55 0.0 3.2 0.00 0.00 0.00 46 1015.1
20260507144505 16 148 1.6 6.4 0.00 0.00 0.00 45 1015.2
20260507143604 16 122 1.6 6.4 0.00 0.00 0.00 45 1015.2
20260507142703 16 91 1.6 9.7 0.00 0.00 0.00 44 1015.2
20260507141805 16 99 0.0 3.2 0.00 0.00 0.00 46 1015.3
20260507140905 16 52 0.0 4.8 0.00 0.00 0.00 45 1015.3
20260507140005 16 340 1.6 6.4 0.00 0.00 0.00 47 1015.4
20260507135403 16 344 1.6 8.0 0.00 0.00 0.00 46 1015.4
20260507134505 16 159 3.2 9.7 0.00 0.00 0.00 46 1015.5
20260507133605 16 125 1.6 9.7 0.00 0.00 0.00 44 1015.5
20260507132703 16 168 0.0 4.8 0.00 0.00 0.00 48 1015.6
20260507131803 16 149 3.2 11.3 0.00 0.00 0.00 46 1015.6
20260507130905 16 150 1.6 8.0 0.00 0.00 0.00 47 1015.6
20260507130003 16 22 0.0 3.2 0.00 0.00 0.00 48 1015.7
20260507125405 15 14 1.6 6.4 0.00 0.00 0.00 49 1015.7
20260507124505 15 23 1.6 6.4 0.00 0.00 0.00 48 1015.8
20260507123604 15 32 1.6 4.8 0.00 0.00 0.00 50 1015.8
20260507122706 14 144 1.6 6.4 0.00 0.00 0.00 51 1015.9
20260507121805 14 127 0.0 3.2 0.00 0.00 0.00 50 1015.9
20260507120904 15 130 0.0 4.8 0.00 0.00 0.00 49 1015.9
20260507120005 16 43 1.6 6.4 0.00 0.00 0.00 48 1015.9
20260507115405 16 9 1.6 6.4 0.00 0.00 0.00 50 1015.9
20260507114504 15 166 1.6 4.8 0.00 0.00 0.00 52 1016.0
20260507113605 15 115 1.6 4.8 0.00 0.00 0.00 51 1016.0
20260507112705 15 91 1.6 11.3 0.00 0.00 0.00 51 1016.0
20260507111805 15 113 1.6 11.3 0.00 0.00 0.00 52 1016.1
20260507110903 15 45 1.6 6.4 0.00 0.00 0.00 52 1016.1
20260507110003 15 116 3.2 11.3 0.00 0.00 0.00 52 1016.2
20260507105618 14 112 4.8 11.3 0.00 0.00 0.00 54 1016.2
20260507104503 13 126 3.2 12.9 0.00 0.00 0.00 55 1016.3
20260507103819 13 138 3.2 9.7 0.00 0.00 0.00 55 1016.2
20260507102918 14 82 1.6 6.4 0.00 0.00 0.00 56 1016.4
20260507101806 14 126 3.2 9.7 0.00 0.00 0.00 58 1016.4
20260507100905 13 145 1.6 11.3 0.00 0.00 0.00 60 1016.5
20260507100003 14 31 3.2 11.3 0.00 0.00 0.00 60 1016.5
20260507095404 14 21 1.6 11.3 0.00 0.00 0.00 60 1016.5
20260507094503 13 27 1.6 4.8 0.00 0.00 0.00 64 1016.4
20260507093605 12 115 1.6 8.0 0.00 0.00 0.00 68 1016.5
20260507092703 12 133 0.0 4.8 0.00 0.00 0.00 68 1016.5
20260507091803 12 307 0.0 4.8 0.00 0.00 0.00 68 1016.5
20260507090904 12 140 3.2 14.5 0.00 0.00 0.00 69 1016.5
20260507090005 12 126 3.2 12.9 0.00 0.00 0.00 72 1016.5
20260507085404 12 144 1.6 11.3 0.00 0.00 0.00 75 1016.5
20260507084503 11 124 3.2 11.3 0.00 0.00 0.00 76 1016.6
20260507083604 11 144 1.6 4.8 0.00 0.00 0.00 78 1016.6
20260507082917 11 178 1.6 9.7 0.00 0.00 0.00 77 1016.6
20260507081805 11 96 1.6 6.4 0.00 0.00 0.00 80 1016.6
20260507080903 11 111 4.8 11.3 0.00 0.00 0.00 80 1016.6
20260507080005 11 130 1.6 6.4 0.00 0.00 0.00 80 1016.6
20260507075405 11 122 1.6 11.3 0.00 0.00 0.00 81 1016.5
20260507074718 11 118 1.6 11.3 0.00 0.00 0.00 82 1016.5
20260507073603 11 116 0.0 4.8 0.00 0.00 0.00 83 1016.5
20260507072703 10 125 0.0 3.2 0.00 0.00 0.00 84 1016.4
20260507072018 10 125 0.0 3.2 0.00 0.00 0.00 85 1016.4
20260507070905 9 105 1.6 4.8 0.00 0.00 0.00 86 1016.5
20260507070009 9 21 0.0 3.2 0.00 0.00 0.00 88 1016.5
20260507065405 8 0 0.0 0.0 0.00 0.00 0.00 89 1016.5
20260507064505 8 0 0.0 0.0 0.00 0.00 0.00 91 1016.4
20260507063603 7 16 0.0 1.6 0.00 0.00 0.00 92 1016.5
20260507062705 6 16 0.0 3.2 0.00 0.00 0.00 92 1016.5
20260507061803 6 11 1.6 4.8 0.00 0.00 0.00 92 1016.4
20260507061117 6 10 0.0 3.2 0.00 0.00 0.00 92 1016.4
20260507060004 6 11 1.6 6.4 0.00 0.00 0.00 92 1016.3
20260507055403 6 13 0.0 3.2 0.00 0.00 0.00 93 1016.3
20260507054503 6 11 0.0 6.4 0.00 0.00 0.00 93 1016.2
20260507053605 5 7 0.0 4.8 0.00 0.00 0.00 93 1016.1
20260507052703 5 0 0.0 0.0 0.00 0.00 0.00 93 1016.1
20260507051804 5 9 0.0 1.6 0.00 0.00 0.00 93 1016.1
20260507051119 5 0 0.0 0.0 0.00 0.00 0.00 93 1016.0
20260507050005 5 0 0.0 0.0 0.00 0.00 0.00 92 1015.9
20260507045405 5 9 0.0 3.2 0.00 0.00 0.00 92 1015.9
20260507044719 4 9 1.6 4.8 0.00 0.00 0.00 92 1015.8
20260507043603 4 3 1.6 4.8 0.00 0.00 0.00 92 1015.8
20260507042705 4 9 1.6 6.4 0.00 0.00 0.00 92 1015.8
20260507041803 4 360 1.6 4.8 0.00 0.00 0.00 92 1015.8
20260507041119 4 360 0.0 4.8 0.00 0.00 0.00 92 1015.9
20260507040003 4 359 1.6 4.8 0.00 0.00 0.00 91 1015.9
20260507035404 4 356 1.6 6.4 0.00 0.00 0.00 91 1015.8
20260507034508 5 355 0.0 4.8 0.00 0.00 0.00 91 1015.8
20260507033605 5 355 0.0 3.2 0.00 0.00 0.00 91 1015.8
20260507032705 5 3 0.0 4.8 0.00 0.00 0.00 91 1015.7
20260507031805 5 20 1.6 4.8 0.00 0.00 0.00 92 1015.7
20260507030905 5 20 1.6 4.8 0.00 0.00 0.00 92 1015.8
20260507030005 5 20 1.6 4.8 0.00 0.00 0.00 92 1015.8
20260507025619 5 18 1.6 4.8 0.00 0.00 0.00 92 1015.8
20260507024503 5 6 3.2 6.4 0.00 0.00 0.00 92 1015.7
20260507023818 5 8 1.6 6.4 0.00 0.00 0.00 92 1015.7
20260507022703 5 10 0.0 1.6 0.00 0.00 0.00 92 1015.8
20260507021805 5 12 1.6 4.8 0.00 0.00 0.00 92 1015.8
20260507020904 5 3 1.6 4.8 0.00 0.00 0.00 92 1015.8
20260507020004 5 5 1.6 4.8 0.00 0.00 0.00 91 1015.7
20260507015409 4 5 1.6 4.8 0.00 0.00 0.00 91 1015.7
20260507014503 4 5 0.0 4.8 0.00 0.00 0.00 91 1015.6
20260507013603 4 5 1.6 4.8 0.00 0.00 0.00 91 1015.6
20260507012706 5 5 1.6 4.8 0.00 0.00 0.00 91 1015.7
20260507011804 5 5 0.0 4.8 0.00 0.00 0.00 91 1015.7
20260507010903 5 5 0.0 3.2 0.00 0.00 0.00 90 1015.7
20260507010003 5 5 1.6 4.8 0.00 0.00 0.00 91 1015.6
20260507005616 5 4 1.6 4.8 0.00 0.00 0.00 91 1015.6
20260507004503 5 359 1.6 4.8 0.00 0.00 0.00 90 1015.5
20260507003603 5 359 3.2 6.4 0.00 0.00 0.00 90 1015.6
20260507002703 5 5 0.0 3.2 0.00 0.00 0.00 90 1015.6
20260507001804 5 0 0.0 0.0 0.00 0.00 0.00 89 1015.6
20260507001117 5 0 0.0 0.0 0.00 0.00 0.00 89 1015.7
20260507000003 5 0 0.0 0.0 0.00 0.00 0.00 88 1015.7
20260506235403 5 5 0.0 1.6 0.00 0.00 0.00 88 1015.6
20260506234505 6 15 0.0 1.6 0.00 0.00 0.00 88 1015.5
20260506233605 6 15 0.0 3.2 0.00 0.00 0.00 88 1015.5
20260506232703 6 14 1.6 4.8 0.00 0.00 0.00 88 1015.5
20260506231803 6 11 0.0 3.2 0.00 0.00 0.00 88 1015.6
20260506230905 6 5 0.0 3.2 0.00 0.00 0.00 87 1015.6
20260506230003 6 2 1.6 6.4 0.00 0.00 0.00 87 1015.6
20260506225618 6 357 1.6 6.4 0.00 0.00 0.00 87 1015.6
20260506224505 7 355 0.0 3.2 0.00 0.00 0.00 86 1015.6